Year,Month,Day,Hour,Minute,Value (Times are PST for temperature in C)
2018,08,21,00,00,19.30
2018,08,21,00,01,19.30
2018,08,21,00,02,19.30
2018,08,21,00,03,19.30
2018,08,21,00,04,19.30
2018,08,21,00,05,19.30
2018,08,21,00,06,19.30
2018,08,21,00,07,19.20
2018,08,21,00,08,19.20
2018,08,21,00,09,19.20
2018,08,21,00,10,19.20
2018,08,21,00,11,19.20
2018,08,21,00,12,19.20
2018,08,21,00,13,19.20
2018,08,21,00,14,19.20
2018,08,21,00,15,19.20
2018,08,21,00,16,19.10
2018,08,21,00,17,19.10
2018,08,21,00,18,19.10
2018,08,21,00,19,19.10
2018,08,21,00,20,19.10
2018,08,21,00,21,19.10
2018,08,21,00,22,19.10
2018,08,21,00,23,19.10
2018,08,21,00,24,19.10
2018,08,21,00,25,19.10
2018,08,21,00,26,19.10
2018,08,21,00,27,19.10
2018,08,21,00,28,19.10
2018,08,21,00,29,19.10
2018,08,21,00,30,19.00
2018,08,21,00,31,19.00
2018,08,21,00,32,19.00
2018,08,21,00,33,19.00
2018,08,21,00,34,19.00
2018,08,21,00,35,19.00
2018,08,21,00,36,19.00
2018,08,21,00,37,18.90
2018,08,21,00,38,18.90
2018,08,21,00,39,18.90
2018,08,21,00,40,18.90
2018,08,21,00,41,18.90
2018,08,21,00,42,18.90
2018,08,21,00,43,18.90
2018,08,21,00,44,18.80
2018,08,21,00,45,18.80
2018,08,21,00,46,18.80
2018,08,21,00,47,18.80
2018,08,21,00,48,18.80
2018,08,21,00,49,18.80
2018,08,21,00,50,18.80
2018,08,21,00,51,18.80
2018,08,21,00,52,18.80
2018,08,21,00,53,18.80
2018,08,21,00,54,18.80
2018,08,21,00,55,18.70
2018,08,21,00,56,18.70
2018,08,21,00,57,18.70
2018,08,21,00,58,18.70
2018,08,21,00,59,18.70
2018,08,21,01,00,18.70
2018,08,21,01,01,18.70
2018,08,21,01,02,18.70
2018,08,21,01,03,18.70
2018,08,21,01,04,18.60
2018,08,21,01,05,18.60
2018,08,21,01,06,18.60
2018,08,21,01,07,18.60
2018,08,21,01,08,18.60
2018,08,21,01,09,18.60
2018,08,21,01,10,18.60
2018,08,21,01,11,18.60
2018,08,21,01,12,18.60
2018,08,21,01,13,18.60
2018,08,21,01,14,18.60
2018,08,21,01,15,18.60
2018,08,21,01,16,18.60
2018,08,21,01,17,18.60
2018,08,21,01,18,18.60
2018,08,21,01,19,18.60
2018,08,21,01,20,18.60
2018,08,21,01,21,18.50
2018,08,21,01,22,18.50
2018,08,21,01,23,18.50
2018,08,21,01,24,18.50
2018,08,21,01,25,18.50
2018,08,21,01,26,18.40
2018,08,21,01,27,18.40
2018,08,21,01,28,18.40
2018,08,21,01,29,18.40
2018,08,21,01,30,18.40
2018,08,21,01,31,18.40
2018,08,21,01,32,18.40
2018,08,21,01,33,18.40
2018,08,21,01,34,18.40
2018,08,21,01,35,18.40
2018,08,21,01,36,18.40
2018,08,21,01,37,18.30
2018,08,21,01,38,18.30
2018,08,21,01,39,18.30
2018,08,21,01,40,18.30
2018,08,21,01,41,18.30
2018,08,21,01,42,18.30
2018,08,21,01,43,18.30
2018,08,21,01,44,18.30
2018,08,21,01,45,18.30
2018,08,21,01,46,18.30
2018,08,21,01,47,18.30
2018,08,21,01,48,18.30
2018,08,21,01,49,18.20
2018,08,21,01,50,18.20
2018,08,21,01,51,18.20
2018,08,21,01,52,18.20
2018,08,21,01,53,18.20
2018,08,21,01,54,18.20
2018,08,21,01,55,18.20
2018,08,21,01,56,18.20
2018,08,21,01,57,18.20
2018,08,21,01,58,18.20
2018,08,21,01,59,18.20
2018,08,21,02,00,18.20
2018,08,21,02,01,18.20
2018,08,21,02,02,18.20
2018,08,21,02,03,18.20
2018,08,21,02,04,18.20
2018,08,21,02,05,18.20
2018,08,21,02,06,18.20
2018,08,21,02,07,18.20
2018,08,21,02,08,18.20
2018,08,21,02,09,18.20
2018,08,21,02,10,18.20
2018,08,21,02,11,18.20
2018,08,21,02,12,18.20
2018,08,21,02,13,18.10
2018,08,21,02,14,18.10
2018,08,21,02,15,18.10
2018,08,21,02,16,18.10
2018,08,21,02,17,18.10
2018,08,21,02,18,18.10
2018,08,21,02,19,18.10
2018,08,21,02,20,18.10
2018,08,21,02,21,18.10
2018,08,21,02,22,18.10
2018,08,21,02,23,18.00
2018,08,21,02,24,18.00
2018,08,21,02,25,18.00
2018,08,21,02,26,18.00
2018,08,21,02,27,18.00
2018,08,21,02,28,18.00
2018,08,21,02,29,18.00
2018,08,21,02,30,17.90
2018,08,21,02,31,17.90
2018,08,21,02,32,17.90
2018,08,21,02,33,17.90
2018,08,21,02,34,17.90
2018,08,21,02,35,17.90
2018,08,21,02,36,17.90
2018,08,21,02,37,17.90
2018,08,21,02,38,17.90
2018,08,21,02,39,17.80
2018,08,21,02,40,17.80
2018,08,21,02,41,17.80
2018,08,21,02,42,17.80
2018,08,21,02,43,17.80
2018,08,21,02,44,17.80
2018,08,21,02,45,17.80
2018,08,21,02,46,17.70
2018,08,21,02,47,17.70
2018,08,21,02,48,17.70
2018,08,21,02,49,17.70
2018,08,21,02,50,17.70
2018,08,21,02,51,17.70
2018,08,21,02,52,17.70
2018,08,21,02,53,17.70
2018,08,21,02,54,17.70
2018,08,21,02,55,17.70
2018,08,21,02,56,17.60
2018,08,21,02,57,17.60
2018,08,21,02,58,17.60
2018,08,21,02,59,17.60
2018,08,21,03,00,17.60
2018,08,21,03,01,17.60
2018,08,21,03,02,17.60
2018,08,21,03,03,17.60
2018,08,21,03,04,17.60
2018,08,21,03,05,17.60
2018,08,21,03,06,17.50
2018,08,21,03,07,17.50
2018,08,21,03,08,17.50
2018,08,21,03,09,17.50
2018,08,21,03,10,17.50
2018,08,21,03,11,17.40
2018,08,21,03,12,17.40
2018,08,21,03,13,17.40
2018,08,21,03,14,17.40
2018,08,21,03,15,17.40
2018,08,21,03,16,17.40
2018,08,21,03,17,17.40
2018,08,21,03,18,17.30
2018,08,21,03,19,17.30
2018,08,21,03,20,17.30
2018,08,21,03,21,17.30
2018,08,21,03,22,17.30
2018,08,21,03,23,17.30
2018,08,21,03,24,17.30
2018,08,21,03,25,17.20
2018,08,21,03,26,17.20
2018,08,21,03,27,17.20
2018,08,21,03,28,17.20
2018,08,21,03,29,17.20
2018,08,21,03,30,17.10
2018,08,21,03,31,17.10
2018,08,21,03,32,17.10
2018,08,21,03,33,17.00
2018,08,21,03,34,17.00
2018,08,21,03,35,17.00
2018,08,21,03,36,17.00
2018,08,21,03,37,16.90
2018,08,21,03,38,16.90
2018,08,21,03,39,16.90
2018,08,21,03,40,16.90
2018,08,21,03,41,16.90
2018,08,21,03,42,16.90
2018,08,21,03,43,16.90
2018,08,21,03,44,16.90
2018,08,21,03,45,16.80
2018,08,21,03,46,16.80
2018,08,21,03,47,16.80
2018,08,21,03,48,16.80
2018,08,21,03,49,16.80
2018,08,21,03,50,16.80
2018,08,21,03,51,16.80
2018,08,21,03,52,16.80
2018,08,21,03,53,16.80
2018,08,21,03,54,16.80
2018,08,21,03,55,16.80
2018,08,21,03,56,16.80
2018,08,21,03,57,16.80
2018,08,21,03,58,16.80
2018,08,21,03,59,16.80
2018,08,21,04,00,16.80
2018,08,21,04,01,16.80
2018,08,21,04,02,16.80
2018,08,21,04,03,16.80
2018,08,21,04,04,16.80
2018,08,21,04,05,16.80
2018,08,21,04,06,16.80
2018,08,21,04,07,16.80
2018,08,21,04,08,16.80
2018,08,21,04,09,16.80
2018,08,21,04,10,16.80
2018,08,21,04,11,16.70
2018,08,21,04,12,16.70
2018,08,21,04,13,16.70
2018,08,21,04,14,16.70
2018,08,21,04,15,16.70
2018,08,21,04,16,16.70
2018,08,21,04,17,16.70
2018,08,21,04,18,16.70
2018,08,21,04,19,16.70
2018,08,21,04,20,16.70
2018,08,21,04,21,16.70
2018,08,21,04,22,16.70
2018,08,21,04,23,16.70
2018,08,21,04,24,16.70
2018,08,21,04,25,16.70
2018,08,21,04,26,16.70
2018,08,21,04,27,16.70
2018,08,21,04,28,16.70
2018,08,21,04,29,16.70
2018,08,21,04,30,16.70
2018,08,21,04,31,16.70
2018,08,21,04,32,16.70
2018,08,21,04,33,16.70
2018,08,21,04,34,16.70
2018,08,21,04,35,16.70
2018,08,21,04,36,16.70
2018,08,21,04,37,16.70
2018,08,21,04,38,16.70
2018,08,21,04,39,16.70
2018,08,21,04,40,16.70
2018,08,21,04,41,16.70
2018,08,21,04,42,16.70
2018,08,21,04,43,16.70
2018,08,21,04,44,16.70
2018,08,21,04,45,16.60
2018,08,21,04,46,16.60
2018,08,21,04,47,16.60
2018,08,21,04,48,16.60
2018,08,21,04,49,16.60
2018,08,21,04,50,16.60
2018,08,21,04,51,16.60
2018,08,21,04,52,16.60
2018,08,21,04,53,16.60
2018,08,21,04,54,16.50
2018,08,21,04,55,16.50
2018,08,21,04,56,16.50
2018,08,21,04,57,16.50
2018,08,21,04,58,16.50
2018,08,21,04,59,16.50
2018,08,21,05,00,16.50
2018,08,21,05,01,16.50
2018,08,21,05,02,16.50
2018,08,21,05,03,16.50
2018,08,21,05,04,16.50
2018,08,21,05,05,16.50
2018,08,21,05,06,16.50
2018,08,21,05,07,16.50
2018,08,21,05,08,16.50
2018,08,21,05,09,16.50
2018,08,21,05,10,16.50
2018,08,21,05,11,16.50
2018,08,21,05,12,16.50
2018,08,21,05,13,16.50
2018,08,21,05,14,16.40
2018,08,21,05,15,16.40
2018,08,21,05,16,16.40
2018,08,21,05,17,16.40
2018,08,21,05,18,16.50
2018,08,21,05,19,16.50
2018,08,21,05,20,16.40
2018,08,21,05,21,16.40
2018,08,21,05,22,16.40
2018,08,21,05,23,16.40
2018,08,21,05,24,16.40
2018,08,21,05,25,16.40
2018,08,21,05,26,16.40
2018,08,21,05,27,16.40
2018,08,21,05,28,16.30
2018,08,21,05,29,16.30
2018,08,21,05,30,16.30
2018,08,21,05,31,16.30
2018,08,21,05,32,16.30
2018,08,21,05,33,16.30
2018,08,21,05,34,16.30
2018,08,21,05,35,16.30
2018,08,21,05,36,16.30
2018,08,21,05,37,16.30
2018,08,21,05,38,16.30
2018,08,21,05,39,16.20
2018,08,21,05,40,16.20
2018,08,21,05,41,16.20
2018,08,21,05,42,16.20
2018,08,21,05,43,16.20
2018,08,21,05,44,16.20
2018,08,21,05,45,16.20
2018,08,21,05,46,16.20
2018,08,21,05,47,16.20
2018,08,21,05,48,16.20
2018,08,21,05,49,16.20
2018,08,21,05,50,16.20
2018,08,21,05,51,16.20
2018,08,21,05,52,16.20
2018,08,21,05,53,16.20
2018,08,21,05,54,16.20
2018,08,21,05,55,16.20
2018,08,21,05,56,16.10
2018,08,21,05,57,16.10
2018,08,21,05,58,16.10
2018,08,21,05,59,16.10
2018,08,21,06,00,16.10
2018,08,21,06,01,16.10
2018,08,21,06,02,16.10
2018,08,21,06,03,16.10
2018,08,21,06,04,16.00
2018,08,21,06,05,16.00
2018,08,21,06,06,16.00
2018,08,21,06,07,15.90
2018,08,21,06,08,15.90
2018,08,21,06,09,15.90
2018,08,21,06,10,15.90
2018,08,21,06,11,15.90
2018,08,21,06,12,15.90
2018,08,21,06,13,15.80
2018,08,21,06,14,15.80
2018,08,21,06,15,15.80
2018,08,21,06,16,15.80
2018,08,21,06,17,15.80
2018,08,21,06,18,15.80
2018,08,21,06,19,15.80
2018,08,21,06,20,15.90
2018,08,21,06,21,15.90
2018,08,21,06,22,15.90
2018,08,21,06,23,15.90
2018,08,21,06,24,15.90
2018,08,21,06,25,15.90
2018,08,21,06,26,16.00
2018,08,21,06,27,16.00
2018,08,21,06,28,16.00
2018,08,21,06,29,16.00
2018,08,21,06,30,16.00
2018,08,21,06,31,16.00
2018,08,21,06,32,16.00
2018,08,21,06,33,16.00
2018,08,21,06,34,15.90
2018,08,21,06,35,15.90
2018,08,21,06,36,15.90
2018,08,21,06,37,15.90
2018,08,21,06,38,15.90
2018,08,21,06,39,15.90
2018,08,21,06,40,15.90
2018,08,21,06,41,15.90
2018,08,21,06,42,15.90
2018,08,21,06,43,15.90
2018,08,21,06,44,15.90
2018,08,21,06,45,15.90
2018,08,21,06,46,15.90
2018,08,21,06,47,15.90
2018,08,21,06,48,15.90
2018,08,21,06,49,15.90
2018,08,21,06,50,15.90
2018,08,21,06,51,15.90
2018,08,21,06,52,15.90
2018,08,21,06,53,15.90
2018,08,21,06,54,15.90
2018,08,21,06,55,15.90
2018,08,21,06,56,15.90
2018,08,21,06,57,15.90
2018,08,21,06,58,15.90
2018,08,21,06,59,15.90
2018,08,21,07,00,15.90
2018,08,21,07,01,15.90
2018,08,21,07,02,15.90
2018,08,21,07,03,15.90
2018,08,21,07,04,15.90
2018,08,21,07,05,15.90
2018,08,21,07,06,15.90
2018,08,21,07,07,15.90
2018,08,21,07,08,15.90
2018,08,21,07,09,15.90
2018,08,21,07,10,15.90
2018,08,21,07,11,15.90
2018,08,21,07,12,15.90
2018,08,21,07,13,15.90
2018,08,21,07,14,15.90
2018,08,21,07,15,15.90
2018,08,21,07,16,15.90
2018,08,21,07,17,15.90
2018,08,21,07,18,15.90
2018,08,21,07,19,15.90
2018,08,21,07,20,15.90
2018,08,21,07,21,16.00
2018,08,21,07,22,16.00
2018,08,21,07,23,16.10
2018,08,21,07,24,16.10
2018,08,21,07,25,16.10
2018,08,21,07,26,16.10
2018,08,21,07,27,16.20
2018,08,21,07,28,16.20
2018,08,21,07,29,16.30
2018,08,21,07,30,16.30
2018,08,21,07,31,16.30
2018,08,21,07,32,16.30
2018,08,21,07,33,16.40
2018,08,21,07,34,16.40
2018,08,21,07,35,16.40
2018,08,21,07,36,16.40
2018,08,21,07,37,16.50
2018,08,21,07,38,16.50
2018,08,21,07,39,16.50
2018,08,21,07,40,16.60
2018,08,21,07,41,16.60
2018,08,21,07,42,16.60
2018,08,21,07,43,16.70
2018,08,21,07,44,16.70
2018,08,21,07,45,16.70
2018,08,21,07,46,16.80
2018,08,21,07,47,16.80
2018,08,21,07,48,16.80
2018,08,21,07,49,16.90
2018,08,21,07,50,16.90
2018,08,21,07,51,17.00
2018,08,21,07,52,17.00
2018,08,21,07,53,17.00
2018,08,21,07,54,17.10
2018,08,21,07,55,17.10
2018,08,21,07,56,17.10
2018,08,21,07,57,17.20
2018,08,21,07,58,17.20
2018,08,21,07,59,17.20
2018,08,21,08,00,17.30
2018,08,21,08,01,17.30
2018,08,21,08,02,17.40
2018,08,21,08,03,17.40
2018,08,21,08,04,17.40
2018,08,21,08,05,17.50
2018,08,21,08,06,17.50
2018,08,21,08,07,17.60
2018,08,21,08,08,17.60
2018,08,21,08,09,17.60
2018,08,21,08,10,17.70
2018,08,21,08,11,17.70
2018,08,21,08,12,17.70
2018,08,21,08,13,17.70
2018,08,21,08,14,17.80
2018,08,21,08,15,17.80
2018,08,21,08,16,17.80
2018,08,21,08,17,17.90
2018,08,21,08,18,17.90
2018,08,21,08,19,17.90
2018,08,21,08,20,18.00
2018,08,21,08,21,18.10
2018,08,21,08,22,18.10
2018,08,21,08,23,18.20
2018,08,21,08,24,18.20
2018,08,21,08,25,18.30
2018,08,21,08,26,18.30
2018,08,21,08,27,18.30
2018,08,21,08,28,18.40
2018,08,21,08,29,18.50
2018,08,21,08,30,18.50
2018,08,21,08,31,18.60
2018,08,21,08,32,18.70
2018,08,21,08,33,18.70
2018,08,21,08,34,18.80
2018,08,21,08,35,18.90
2018,08,21,08,36,19.00
2018,08,21,08,37,19.10
2018,08,21,08,38,19.20
2018,08,21,08,39,19.30
2018,08,21,08,40,19.30
2018,08,21,08,41,19.40
2018,08,21,08,42,19.50
2018,08,21,08,43,19.60
2018,08,21,08,44,19.70
2018,08,21,08,45,19.80
2018,08,21,08,46,19.90
2018,08,21,08,47,20.00
2018,08,21,08,48,20.10
2018,08,21,08,49,20.20
2018,08,21,08,50,20.30
2018,08,21,08,51,20.40
2018,08,21,08,52,20.40
2018,08,21,08,53,20.50
2018,08,21,08,54,20.60
2018,08,21,08,55,20.70
2018,08,21,08,56,20.80
2018,08,21,08,57,20.80
2018,08,21,08,58,20.90
2018,08,21,08,59,21.00
2018,08,21,09,00,21.10
2018,08,21,09,01,21.10
2018,08,21,09,02,21.20
2018,08,21,09,03,21.30
2018,08,21,09,04,21.40
2018,08,21,09,05,21.40
2018,08,21,09,06,21.50
2018,08,21,09,07,21.60
2018,08,21,09,08,21.60
2018,08,21,09,09,21.70
2018,08,21,09,10,21.80
2018,08,21,09,11,21.90
2018,08,21,09,12,22.00
2018,08,21,09,13,22.10
2018,08,21,09,14,22.20
2018,08,21,09,15,22.20
2018,08,21,09,16,22.30
2018,08,21,09,17,22.40
2018,08,21,09,18,22.50
2018,08,21,09,19,22.60
2018,08,21,09,20,22.70
2018,08,21,09,21,22.70
2018,08,21,09,22,22.80
2018,08,21,09,23,22.90
2018,08,21,09,24,22.90
2018,08,21,09,25,23.00
2018,08,21,09,26,23.00
2018,08,21,09,27,23.10
2018,08,21,09,28,23.20
2018,08,21,09,29,23.20
2018,08,21,09,30,23.30
2018,08,21,09,31,23.30
2018,08,21,09,32,23.30
2018,08,21,09,33,23.40
2018,08,21,09,34,23.50
2018,08,21,09,35,23.60
2018,08,21,09,36,23.60
2018,08,21,09,37,23.70
2018,08,21,09,38,23.80
2018,08,21,09,39,23.80
2018,08,21,09,40,23.90
2018,08,21,09,41,23.90
2018,08,21,09,42,24.00
2018,08,21,09,43,24.10
2018,08,21,09,44,24.10
2018,08,21,09,45,24.30
2018,08,21,09,46,24.30
2018,08,21,09,47,24.40
2018,08,21,09,48,24.40
2018,08,21,09,49,24.50
2018,08,21,09,50,24.60
2018,08,21,09,51,24.60
2018,08,21,09,52,24.60
2018,08,21,09,53,24.70
2018,08,21,09,54,24.80
2018,08,21,09,55,24.80
2018,08,21,09,56,24.80
2018,08,21,09,57,24.90
2018,08,21,09,58,25.00
2018,08,21,09,59,25.10
2018,08,21,10,00,25.10
2018,08,21,10,01,25.20
2018,08,21,10,02,25.20
2018,08,21,10,03,25.30
2018,08,21,10,04,25.30
2018,08,21,10,05,25.40
2018,08,21,10,06,25.40
2018,08,21,10,07,25.50
2018,08,21,10,08,25.60
2018,08,21,10,09,25.60
2018,08,21,10,10,25.60
2018,08,21,10,11,25.70
2018,08,21,10,12,25.70
2018,08,21,10,13,25.80
2018,08,21,10,14,25.80
2018,08,21,10,15,25.80
2018,08,21,10,16,25.80
2018,08,21,10,17,25.80
2018,08,21,10,18,25.80
2018,08,21,10,19,25.80
2018,08,21,10,20,25.80
2018,08,21,10,21,25.80
2018,08,21,10,22,25.80
2018,08,21,10,23,25.80
2018,08,21,10,24,25.80
2018,08,21,10,25,25.80
2018,08,21,10,26,25.80
2018,08,21,10,27,25.80
2018,08,21,10,28,25.80
2018,08,21,10,29,25.80
2018,08,21,10,30,25.90
2018,08,21,10,31,25.90
2018,08,21,10,32,26.00
2018,08,21,10,33,26.00
2018,08,21,10,34,26.10
2018,08,21,10,35,26.10
2018,08,21,10,36,26.20
2018,08,21,10,37,26.30
2018,08,21,10,38,26.30
2018,08,21,10,39,26.40
2018,08,21,10,40,26.50
2018,08,21,10,41,26.60
2018,08,21,10,42,26.60
2018,08,21,10,43,26.70
2018,08,21,10,44,26.80
2018,08,21,10,45,26.80
2018,08,21,10,46,26.80
2018,08,21,10,47,26.90
2018,08,21,10,48,26.90
2018,08,21,10,49,26.90
2018,08,21,10,50,26.90
2018,08,21,10,51,26.90
2018,08,21,10,52,26.90
2018,08,21,10,53,26.90
2018,08,21,10,54,27.00
2018,08,21,10,55,27.00
2018,08,21,10,56,27.00
2018,08,21,10,57,27.00
2018,08,21,10,58,27.00
2018,08,21,10,59,27.00
2018,08,21,11,00,27.10
2018,08,21,11,01,27.10
2018,08,21,11,02,27.10
2018,08,21,11,03,27.20
2018,08,21,11,04,27.20
2018,08,21,11,05,27.30
2018,08,21,11,06,27.30
2018,08,21,11,07,27.40
2018,08,21,11,08,27.40
2018,08,21,11,09,27.40
2018,08,21,11,10,27.40
2018,08,21,11,11,27.40
2018,08,21,11,12,27.40
2018,08,21,11,13,27.40
2018,08,21,11,14,27.40
2018,08,21,11,15,27.40
2018,08,21,11,16,27.40
2018,08,21,11,17,27.30
2018,08,21,11,18,27.30
2018,08,21,11,19,27.30
2018,08,21,11,20,27.30
2018,08,21,11,21,27.30
2018,08,21,11,22,27.30
2018,08,21,11,23,27.20
2018,08,21,11,24,27.20
2018,08,21,11,25,27.20
2018,08,21,11,26,27.20
2018,08,21,11,27,27.10
2018,08,21,11,28,27.10
2018,08,21,11,29,27.10
2018,08,21,11,30,27.10
2018,08,21,11,31,27.10
2018,08,21,11,32,27.10
2018,08,21,11,33,27.10
2018,08,21,11,34,27.10
2018,08,21,11,35,27.10
2018,08,21,11,36,27.10
2018,08,21,11,37,27.20
2018,08,21,11,38,27.30
2018,08,21,11,39,27.30
2018,08,21,11,40,27.30
2018,08,21,11,41,27.30
2018,08,21,11,42,27.30
2018,08,21,11,43,27.40
2018,08,21,11,44,27.40
2018,08,21,11,45,27.40
2018,08,21,11,46,27.30
2018,08,21,11,47,27.30
2018,08,21,11,48,27.30
2018,08,21,11,49,27.30
2018,08,21,11,50,27.30
2018,08,21,11,51,27.30
2018,08,21,11,52,27.30
2018,08,21,11,53,27.30
2018,08,21,11,54,27.20
2018,08,21,11,55,27.20
2018,08,21,11,56,27.20
2018,08,21,11,57,27.20
2018,08,21,11,58,27.20
2018,08,21,11,59,27.20
2018,08,21,12,00,27.20
2018,08,21,12,01,27.20
2018,08,21,12,02,27.20
2018,08,21,12,03,27.20
2018,08,21,12,04,27.20
2018,08,21,12,05,27.20
2018,08,21,12,06,27.20
2018,08,21,12,07,27.20
2018,08,21,12,08,27.20
2018,08,21,12,09,27.20
2018,08,21,12,10,27.30
2018,08,21,12,11,27.30
2018,08,21,12,12,27.40
2018,08,21,12,13,27.50
2018,08,21,12,14,27.50
2018,08,21,12,15,27.60
2018,08,21,12,16,27.70
2018,08,21,12,17,27.80
2018,08,21,12,18,27.80
2018,08,21,12,19,27.80
2018,08,21,12,20,27.70
2018,08,21,12,21,27.60
2018,08,21,12,22,27.60
2018,08,21,12,23,27.60
2018,08,21,12,24,27.70
2018,08,21,12,25,27.70
2018,08,21,12,26,27.70
2018,08,21,12,27,27.60
2018,08,21,12,28,27.60
2018,08,21,12,29,27.60
2018,08,21,12,30,27.60
2018,08,21,12,31,27.70
2018,08,21,12,32,27.70
2018,08,21,12,33,27.70
2018,08,21,12,34,27.80
2018,08,21,12,35,27.80
2018,08,21,12,36,27.80
2018,08,21,12,37,27.90
2018,08,21,12,38,28.00
2018,08,21,12,39,28.00
2018,08,21,12,40,28.10
2018,08,21,12,41,28.20
2018,08,21,12,42,28.30
2018,08,21,12,43,28.30
2018,08,21,12,44,28.40
2018,08,21,12,45,28.40
2018,08,21,12,46,28.40
2018,08,21,12,47,28.40
2018,08,21,12,48,28.40
2018,08,21,12,49,28.50
2018,08,21,12,50,28.50
2018,08,21,12,51,28.60
2018,08,21,12,52,28.70
2018,08,21,12,53,28.70
2018,08,21,12,54,28.80
2018,08,21,12,55,28.80
2018,08,21,12,56,28.80
2018,08,21,12,57,28.80
2018,08,21,12,58,28.70
2018,08,21,12,59,28.70
2018,08,21,13,00,28.60
2018,08,21,13,01,28.60
2018,08,21,13,02,28.60
2018,08,21,13,03,28.70
2018,08,21,13,04,28.70
2018,08,21,13,05,28.70
2018,08,21,13,06,28.70
2018,08,21,13,07,28.70
2018,08,21,13,08,28.80
2018,08,21,13,09,28.80
2018,08,21,13,10,28.80
2018,08,21,13,11,28.70
2018,08,21,13,12,28.70
2018,08,21,13,13,28.70
2018,08,21,13,14,28.70
2018,08,21,13,15,28.80
2018,08,21,13,16,28.90
2018,08,21,13,17,29.00
2018,08,21,13,18,29.00
2018,08,21,13,19,29.10
2018,08,21,13,20,29.20
2018,08,21,13,21,29.40
2018,08,21,13,22,29.40
2018,08,21,13,23,29.40
2018,08,21,13,24,29.30
2018,08,21,13,25,29.30
2018,08,21,13,26,29.30
2018,08,21,13,27,29.40
2018,08,21,13,28,29.40
2018,08,21,13,29,29.40
2018,08,21,13,30,29.40
2018,08,21,13,31,29.50
2018,08,21,13,32,29.50
2018,08,21,13,33,29.50
2018,08,21,13,34,29.50
2018,08,21,13,35,29.50
2018,08,21,13,36,29.40
2018,08,21,13,37,29.50
2018,08,21,13,38,29.50
2018,08,21,13,39,29.60
2018,08,21,13,40,29.60
2018,08,21,13,41,29.70
2018,08,21,13,42,29.70
2018,08,21,13,43,29.70
2018,08,21,13,44,29.70
2018,08,21,13,45,29.70
2018,08,21,13,46,29.70
2018,08,21,13,47,29.80
2018,08,21,13,48,29.80
2018,08,21,13,49,29.90
2018,08,21,13,50,30.00
2018,08,21,13,51,30.10
2018,08,21,13,52,30.20
2018,08,21,13,53,30.30
2018,08,21,13,54,30.30
2018,08,21,13,55,30.40
2018,08,21,13,56,30.40
2018,08,21,13,57,30.40
2018,08,21,13,58,30.40
2018,08,21,13,59,30.50
2018,08,21,14,00,30.50
2018,08,21,14,01,30.40
2018,08,21,14,02,30.40
2018,08,21,14,03,30.40
2018,08,21,14,04,30.40
2018,08,21,14,05,30.40
2018,08,21,14,06,30.40
2018,08,21,14,07,30.30
2018,08,21,14,08,30.30
2018,08,21,14,09,30.40
2018,08,21,14,10,30.30
2018,08,21,14,11,30.30
2018,08,21,14,12,30.20
2018,08,21,14,13,30.10
2018,08,21,14,14,30.10
2018,08,21,14,15,30.00
2018,08,21,14,16,30.00
2018,08,21,14,17,30.00
2018,08,21,14,18,29.90
2018,08,21,14,19,29.90
2018,08,21,14,20,29.80
2018,08,21,14,21,29.90
2018,08,21,14,22,29.90
2018,08,21,14,23,30.00
2018,08,21,14,24,30.00
2018,08,21,14,25,30.10
2018,08,21,14,26,30.20
2018,08,21,14,27,30.20
2018,08,21,14,28,30.30
2018,08,21,14,29,30.40
2018,08,21,14,30,30.40
2018,08,21,14,31,30.40
2018,08,21,14,32,30.40
2018,08,21,14,33,30.40
2018,08,21,14,34,30.40
2018,08,21,14,35,30.40
2018,08,21,14,36,30.40
2018,08,21,14,37,30.40
2018,08,21,14,38,30.40
2018,08,21,14,39,30.40
2018,08,21,14,40,30.40
2018,08,21,14,41,30.30
2018,08,21,14,42,30.30
2018,08,21,14,43,30.40
2018,08,21,14,44,30.40
2018,08,21,14,45,30.40
2018,08,21,14,46,30.40
2018,08,21,14,47,30.40
2018,08,21,14,48,30.40
2018,08,21,14,49,30.50
2018,08,21,14,50,30.60
2018,08,21,14,51,30.60
2018,08,21,14,52,30.70
2018,08,21,14,53,30.70
2018,08,21,14,54,30.70
2018,08,21,14,55,30.70
2018,08,21,14,56,30.70
2018,08,21,14,57,30.70
2018,08,21,14,58,30.70
2018,08,21,14,59,30.70
2018,08,21,15,00,30.70
2018,08,21,15,01,30.60
2018,08,21,15,02,30.60
2018,08,21,15,03,30.60
2018,08,21,15,04,30.60
2018,08,21,15,05,30.60
2018,08,21,15,06,30.50
2018,08,21,15,07,30.50
2018,08,21,15,08,30.40
2018,08,21,15,09,30.40
2018,08,21,15,10,30.40
2018,08,21,15,11,30.40
2018,08,21,15,12,30.40
2018,08,21,15,13,30.40
2018,08,21,15,14,30.40
2018,08,21,15,15,30.30
2018,08,21,15,16,30.30
2018,08,21,15,17,30.30
2018,08,21,15,18,30.30
2018,08,21,15,19,30.20
2018,08,21,15,20,30.20
2018,08,21,15,21,30.20
2018,08,21,15,22,30.10
2018,08,21,15,23,30.10
2018,08,21,15,24,30.10
2018,08,21,15,25,30.20
2018,08,21,15,26,30.10
2018,08,21,15,27,30.10
2018,08,21,15,28,30.10
2018,08,21,15,29,30.10
2018,08,21,15,30,30.00
2018,08,21,15,31,30.00
2018,08,21,15,32,30.00
2018,08,21,15,33,30.10
2018,08,21,15,34,30.10
2018,08,21,15,35,30.10
2018,08,21,15,36,30.00
2018,08,21,15,37,29.90
2018,08,21,15,38,29.90
2018,08,21,15,39,29.90
2018,08,21,15,40,29.90
2018,08,21,15,41,29.90
2018,08,21,15,42,29.90
2018,08,21,15,43,29.90
2018,08,21,15,44,29.90
2018,08,21,15,45,29.90
2018,08,21,15,46,30.00
2018,08,21,15,47,30.00
2018,08,21,15,48,30.10
2018,08,21,15,49,30.10
2018,08,21,15,50,30.10
2018,08,21,15,51,30.10
2018,08,21,15,52,30.00
2018,08,21,15,53,30.00
2018,08,21,15,54,30.00
2018,08,21,15,55,30.00
2018,08,21,15,56,30.00
2018,08,21,15,57,30.00
2018,08,21,15,58,30.00
2018,08,21,15,59,30.00
2018,08,21,16,00,30.10
2018,08,21,16,01,30.10
2018,08,21,16,02,30.10
2018,08,21,16,03,30.00
2018,08,21,16,04,30.10
2018,08,21,16,05,30.10
2018,08,21,16,06,30.10
2018,08,21,16,07,30.10
2018,08,21,16,08,30.00
2018,08,21,16,09,30.00
2018,08,21,16,10,30.00
2018,08,21,16,11,30.10
2018,08,21,16,12,30.10
2018,08,21,16,13,30.10
2018,08,21,16,14,30.10
2018,08,21,16,15,30.00
2018,08,21,16,16,30.00
2018,08,21,16,17,30.10
2018,08,21,16,18,30.10
2018,08,21,16,19,30.10
2018,08,21,16,20,30.10
2018,08,21,16,21,30.10
2018,08,21,16,22,30.10
2018,08,21,16,23,30.10
2018,08,21,16,24,30.10
2018,08,21,16,25,30.10
2018,08,21,16,26,30.20
2018,08,21,16,27,30.20
2018,08,21,16,28,30.20
2018,08,21,16,29,30.20
2018,08,21,16,30,30.20
2018,08,21,16,31,30.20
2018,08,21,16,32,30.20
2018,08,21,16,33,30.20
2018,08,21,16,34,30.20
2018,08,21,16,35,30.30
2018,08,21,16,36,30.30
2018,08,21,16,37,30.30
2018,08,21,16,38,30.30
2018,08,21,16,39,30.30
2018,08,21,16,40,30.30
2018,08,21,16,41,30.30
2018,08,21,16,42,30.30
2018,08,21,16,43,30.40
2018,08,21,16,44,30.40
2018,08,21,16,45,30.40
2018,08,21,16,46,30.40
2018,08,21,16,47,30.40
2018,08,21,16,48,30.40
2018,08,21,16,49,30.40
2018,08,21,16,50,30.40
2018,08,21,16,51,30.40
2018,08,21,16,52,30.40
2018,08,21,16,53,30.40
2018,08,21,16,54,30.40
2018,08,21,16,55,30.40
2018,08,21,16,56,30.40
2018,08,21,16,57,30.30
2018,08,21,16,58,30.30
2018,08,21,16,59,30.30
2018,08,21,17,00,30.30
2018,08,21,17,01,30.30
2018,08,21,17,02,30.30
2018,08,21,17,03,30.20
2018,08,21,17,04,30.20
2018,08,21,17,05,30.20
2018,08,21,17,06,30.20
2018,08,21,17,07,30.20
2018,08,21,17,08,30.20
2018,08,21,17,09,30.20
2018,08,21,17,10,30.20
2018,08,21,17,11,30.20
2018,08,21,17,12,30.20
2018,08,21,17,13,30.20
2018,08,21,17,14,30.20
2018,08,21,17,15,30.10
2018,08,21,17,16,30.10
2018,08,21,17,17,30.10
2018,08,21,17,18,30.10
2018,08,21,17,19,30.10